Tracking 19247 objects as of 26-Sep-2018
HD Live streaming from Space Station
objects crossing your sky now

FENGYUN 1C DEB

Track FENGYUN 1C DEB now!
10-day predictions


NORAD ID: 35095
Int'l Code: 1999-025DJX
Perigee: 582.9 km
Apogee: 891.3 km
Inclination: 98.5 °
Period: 99.4 minutes
Semi major axis: 7108 km
RCS: 0.0101 m2 (small)
Launch date: May 10, 1999
Source: People's Republic of China (PRC)
Launch site: Taiyaun Space Center, China (TSC)

Note: This is SATELLITE DEBRIS
aabbcc
Your satellite tracking list
Your tracking list is empty




NASA's NSSDC Master Catalog

Two Line Element Set (TLE):
1 35095U 99025DJX 18266.00530155 +.00000701 +00000-0 +14995-3 0  9998
2 35095 098.5193 338.8527 0216961 323.0651 035.5766 14.48679281334787
Source of the keplerian elements: AFSPC